Cosmos 1814 Rocket - Orbit

View from above orbital plane
View from above orbital plane
View from above satellite
View from above satellite

Ground track
Ground track

The orbit data is extracted from the following two-line orbital elements,

1 17304U 87006B   13168.20531450  .00000074  00000-0  33378-4 0  8678
2 17304 074.0598 255.2226 0028809 099.6047 292.6588 14.37146810383386
Epoch (UTC): 17 June 2013 04:55:39
Eccentricity: 0.0028809
inclination: 74.0598°
perigee height: 747 km
apogee height: 788 km
right ascension of ascending node: 255.2226°
argument of perigee: 99.6047°
revolutions per day: 14.37146810
mean anomaly at epoch: 292.6588°
orbit number at epoch: 38338

The dashed part of the orbit path shows where the satellite is in the earth's shadow,  

Developed and maintained by Chris Peat, Heavens-Above GmbH. Please read the updated FAQ before sending e-mail. Imprint. DLR